Starlink 11564

operational
NORAD ID: 62913 Int'l Des: 2025-027 Owner: SPXS Country: US Constellation: starlink
LEOCIRCULAR

Über Starlink 11564

Beschreibung wird geladen...

Live-Position

3D-Globus wird geladen...

Nächste Überflüge

Höhenverlauf

Altitude vs Time

uPlot chart will show altitude changes over time

Zweizeiliger Elementsatz

1 62913U 25027G 25303.68501176 .00335336 00000-0 25095-2 0 9990
2 62913 42.9996 51.4797 0001101 297.8839 62.1917 15.70871044 42700
Epoch: 30. Okt. 2025 • Age: 28 hours

Aktueller Status

Höhe 355.6 km
Geschwindigkeit 7.70 km/s
Subsatellitenpunkt 33.36°N, 106.83°E
Startdatum 8. Feb. 2025
Alter 0.7 years
Typ internet

Technische Details

Klassifizierung Payload
Masse 960.00 kg
Trockenmasse 910.00 kg
Gesamtmasse 960.00 kg
Länge 0.30 m
Durchmesser 4.10 m
Spannweite 29.00 m
Form Box + pan
Hersteller SPXS
Bus-Typ Starlink V2MD
Phasenstatus In Orbit
Besitzer/Staat SPXS/US

Große Konstellationen

Loading constellations...